This is the latest recevied weather packets stored in our database for station/object KJ5IIV. If no packets are shown the sender has not sent any weather packets the latest 10 day(s).
| Time | Temp. | Humidity | Pressure | Rain* | Wind** | Luminosity | Snow |
|---|---|---|---|---|---|---|---|
| 1778274836 | 27.22° C | 48% | 1009.8 hPa | 0 mm | - | 216 W/m² | - |
| 1778274534 | 27.22° C | 46% | 1009.8 hPa | 0 mm | - | 231 W/m² | - |
| 1778274230 | 27.22° C | 46% | 1009.7 hPa | 0 mm | - | 243 W/m² | - |
| 1778273926 | 28.33° C | 41% | 1009.7 hPa | 0 mm | - | 253 W/m² | - |
| 1778273623 | 28.33° C | 45% | 1009.7 hPa | 0 mm | - | 467 W/m² | - |
| 1778273319 | 28.33° C | 44% | 1009.6 hPa | 0 mm | - | 577 W/m² | - |
| 1778273017 | 27.78° C | 45% | 1009.8 hPa | 0 mm | - | 589 W/m² | - |
| 1778272712 | 27.78° C | 47% | 1009.9 hPa | 0 mm | - | 548 W/m² | - |
| 1778272409 | 26.67° C | 48% | 1009.9 hPa | 0 mm | - | 597 W/m² | - |
| 1778272104 | 27.22° C | 47% | 1009.8 hPa | 0 mm | - | 380 W/m² | - |
| 1778271802 | 27.78° C | 47% | 1009.9 hPa | 0 mm | - | 558 W/m² | - |
| 1778271499 | 26.67° C | 50% | 1010 hPa | 0 mm | - | 575 W/m² | - |
| 1778271196 | 27.22° C | 51% | 1009.9 hPa | 0 mm | - | 636 W/m² | - |
| 1778270892 | 26.67° C | 49% | 1010.1 hPa | 0 mm | - | 646 W/m² | - |
| 1778270589 | 27.78° C | 48% | 1010 hPa | 0 mm | - | 662 W/m² | - |
| 1778270285 | 27.78° C | 49% | 1010.6 hPa | 0 mm | - | 683 W/m² | - |
| 1778269982 | 27.22° C | 48% | 1010.6 hPa | 0 mm | - | 705 W/m² | - |
| 1778269678 | 27.78° C | 47% | 1010.9 hPa | 0 mm | - | 723 W/m² | - |
| 1778269375 | 27.78° C | 49% | 1010.9 hPa | 0 mm | - | 750 W/m² | - |
| 1778269073 | 26.67° C | 50% | 1010.8 hPa | 0 mm | - | 752 W/m² | - |
| 1778268769 | 26.67° C | 48% | 1010.9 hPa | 0 mm | - | 765 W/m² | - |
| 1778268465 | 26.11° C | 52% | 1011 hPa | 0 mm | - | 816 W/m² | - |
| 1778268163 | 26.11° C | 52% | 1011.1 hPa | 0 mm | - | 796 W/m² | - |
| 1778267860 | 26.11° C | 51% | 1011 hPa | 0 mm | - | 809 W/m² | - |
| 1778267557 | 26.11° C | 52% | 1011.3 hPa | 0 mm | - | 713 W/m² | - |
* Rain latest hour (hover to see other rain measurements)
** Current wind speed in m/s (hover to see current wind gust speed)